Regional Weather Roundup
Issued by NWS Cleveland, OH

Home | Current Version | Previous Version | Text Only | Print | Product List | Glossary Off
Versions: 1 2 3 4 5 6 7 8 9 10 11 12 13 14 15 16 17 18 19 20 21 22 23 24 25 26 27 28 29 30 31 32 33 34 35 36 37 38 39 40 41 42 43 44 45 46 47 48 49 50

677
ASUS41 KCLE 100400
RWRCLE
OHIO REGIONAL WEATHER ROUNDUP
NATIONAL WEATHER SERVICE WILMINGTON, OH
1100 PM EST TUE FEB 09 2016

NOTE: "FAIR" INDICATES FEW OR NO CLOUDS BELOW 12,000 FEET WITH NO
SIGNIFICANT WEATHER AND/OR OBSTRUCTIONS TO VISIBILITY.

OHZ001>008-015>018-024>027-034-035-043-044-100500-
   NORTHWEST OHIO

CITY           SKY/WX    TMP DP  RH WIND       PRES   REMARKS
DEFIANCE       CLOUDY    23  15  71 W10G20    29.81S WCI  12
FINDLAY        CLOUDY    24  16  71 W17       29.78S HAZE    WCI  11
TOLEDO EXPRESS FLURRIES  24  18  77 W17G26    29.76S WCI  11
TOLEDO EXEC    CLOUDY    26  18  71 W18       29.76S WCI  13
LIMA           CLOUDY    20  15  81 W23       29.81S WCI   3
$$

OHZ009>014-019>023-028>033-038-089-100500-
   NORTHEAST OHIO

CITY           SKY/WX    TMP DP  RH WIND       PRES   REMARKS
CLE-HOPKINS    LGT SNOW  25  22  88 W14       29.73S FOG     WCI  13
CLE-LAKEFRONT  CLOUDY    29  24  82 W24G30    29.70S HAZE    WCI  15
CUY CO. ARPT   LGT SNOW  28  25  86 W12G23    29.69S WCI  18
LORAIN-ELYRIA  LGT SNOW  25  20  81 W13       29.73S WCI  14
ASHTABULA      LGT SNOW  26  24  92 W15       29.65S FOG     WCI  14
AKRON-CANTON   LGT SNOW  24  19  81 NW17G25   29.70R WCI  11
WOOSTER        NOT AVBL
MANSFIELD      LGT SNOW  22  19  89 W14G22    29.73R FOG     WCI   9
YOUNGSTOWN     LGT SNOW  26  22  84 W12       29.66S FOG     WCI  16
$$

OHZ042-051>053-060>062-070>072-077>081-100500-
  SOUTHWEST OHIO

CITY           SKY/WX    TMP DP  RH WIND       PRES   REMARKS
CINC-COVINGTON FAIR      17   9  70 W16       29.93R WCI   2
CINC-LUNKEN    CLOUDY    20  12  71 W15       29.96R WCI   6
HAMILTON       FAIR      19   9  65 W9        29.94R WCI   8
DAYTON         NOT AVBL
WRIGHT-PAT AFB NOT AVBL
DAYTON GENERAL CLOUDY    18   9  68 W12       29.88S WCI   5
WILMINGTON     FLURRIES  19  13  77 W16       29.86S WCI   4
$$

OHZ036-037-039>041-045>050-054>059-063>069-073>076-082>088-100500-
  CENTRAL AND SOUTHEAST OHIO

CITY           SKY/WX    TMP DP  RH WIND       PRES   REMARKS
COLUMBUS       FLURRIES  22  15  75 W17       29.82R WCI   8
OSU AIRPORT    CLOUDY    22  16  78 W14       29.82R WCI   9
BOLTON FIELD   NOT AVBL
RICKENBACK AFB NOT AVBL
NEWARK         CLOUDY    24  17  74 MISG      29.80R
MARION         CLOUDY    23  16  74 W13       29.79R WCI  11
LANCASTER      CLOUDY    23  18  81 W8        29.83R WCI  14
ZANESVILLE     CLOUDY    25  19  78 W9        29.78S WCI  15
NEW PHILLY     CLOUDY    26  21  81 W9        29.74S WCI  17
$$




USA.gov is the U.S. government's official web portal to all federal, state and local government web resources and services.